Peleus — V2FV2 — position and weather

sailwx.info

Track history (hours):
 
Tides and Currents Weather Stations Pressure Air Temp Water Temp Dewpoint Dewpoint Depression Visibility Wind Speed Wind Dir Waves Ship Positions

Peleus

Last reported at 2014-Oct-26 02:19 UTC. Time now 2014-Oct-31 09:52 UTC.
Position N 39°16' W 009°46'.

Length 88 m; draft 5.6 m.

Type: Ship. MMSI: 305810000.

Date/timePositionNaut miles runAvg speedWind from/ knotsBaromVisibWave heightAir tempDewpointWater temp
2014-Oct-26 02:19N 39°16' W 009°46'13 6.9
2014-Oct-26 00:25N 39°03' W 009°49'8 6.8
2014-Oct-25 23:10N 38°55' W 009°50'4 7.1
2014-Oct-25 22:33N 38°50' W 009°51'8 7.1
2014-Oct-25 21:22N 38°42' W 009°50'6 7.2
2014-Oct-25 20:33N 38°36' W 009°48'7 7.2
2014-Oct-25 19:33N 38°29' W 009°48'8 7.9
2014-Oct-25 18:33N 38°21' W 009°48'9 8.9
2014-Oct-25 17:33N 38°12' W 009°48'10 8.5
2014-Oct-25 16:22N 38°02' W 009°47'7 8.5
2014-Oct-25 15:31N 37°55' W 009°45'8 8.2
2014-Oct-25 14:33N 37°47' W 009°44'9 8.6
2014-Oct-25 13:27N 37°38' W 009°43'8 8.3
2014-Oct-25 12:32N 37°30' W 009°43'10 8.6
2014-Oct-25 11:21N 37°20' W 009°44'7 8.5
2014-Oct-25 10:31N 37°13' W 009°45'8 8.6
2014-Oct-25 09:32N 37°05' W 009°46'32 8.1
2014-Oct-25 05:33N 36°32' W 009°44'43 8.1
2014-Oct-25 00:11N 35°49' W 009°40'6 8.1
2014-Oct-24 23:25N 35°43' W 009°40'8 8.0
2014-Oct-24 22:26N 35°35' W 009°39'7 8.1
2014-Oct-24 21:32N 35°28' W 009°39'8 7.9
2014-Oct-24 20:31N 35°20' W 009°39'9 8.0
2014-Oct-24 19:26N 35°11' W 009°38'8 8.1
2014-Oct-24 18:25N 35°03' W 009°37'26 8.0
2014-Oct-24 15:12N 34°37' W 009°34'5 7.9
2014-Oct-24 14:33N 34°32' W 009°34'112 3.3
2014-Oct-23 04:14N 32°41' W 009°18'180 9.1
2014-Oct-22 08:33N 35°19' W 007°34'8 8.1
2014-Oct-22 07:33N 35°26' W 007°29'9 8.4
2014-Oct-22 06:31N 35°33' W 007°24'  
2014-Oct-18 00:06N 36°49' W 007°23'26 7.3
2014-Oct-17 20:33N 36°51' W 007°55'7 6.7
2014-Oct-17 19:32N 36°51' W 008°04'19 7.9
2014-Oct-17 17:04N 36°50' W 008°28'4 7.4
2014-Oct-17 16:33N 36°49' W 008°32'8 7.7
2014-Oct-17 15:33N 36°44' W 008°40'7 7.5
2014-Oct-17 14:33N 36°40' W 008°48'  
Track history (hours):
 
Tides and Currents Weather Stations Pressure Air Temp Water Temp Dewpoint Dewpoint Depression Visibility Wind Speed Wind Dir Waves Ship Positions

Peleus

Last reported at 2014-Oct-26 02:19 UTC. Time now 2014-Oct-31 09:52 UTC.
Position N 39°16' W 009°46'.

Length 88 m; draft 5.6 m.

Type: Ship. MMSI: 305810000.

Date/timePositionNaut miles runAvg speedWind from/ knotsBaromVisibWave heightAir tempDewpointWater temp
2014-Oct-26 02:19N 39°16' W 009°46'13 6.9
2014-Oct-26 00:25N 39°03' W 009°49'8 6.8
2014-Oct-25 23:10N 38°55' W 009°50'4 7.1
2014-Oct-25 22:33N 38°50' W 009°51'8 7.1
2014-Oct-25 21:22N 38°42' W 009°50'6 7.2
2014-Oct-25 20:33N 38°36' W 009°48'7 7.2
2014-Oct-25 19:33N 38°29' W 009°48'8 7.9
2014-Oct-25 18:33N 38°21' W 009°48'9 8.9
2014-Oct-25 17:33N 38°12' W 009°48'10 8.5
2014-Oct-25 16:22N 38°02' W 009°47'7 8.5
2014-Oct-25 15:31N 37°55' W 009°45'8 8.2
2014-Oct-25 14:33N 37°47' W 009°44'9 8.6
2014-Oct-25 13:27N 37°38' W 009°43'8 8.3
2014-Oct-25 12:32N 37°30' W 009°43'10 8.6
2014-Oct-25 11:21N 37°20' W 009°44'7 8.5
2014-Oct-25 10:31N 37°13' W 009°45'8 8.6
2014-Oct-25 09:32N 37°05' W 009°46'32 8.1
2014-Oct-25 05:33N 36°32' W 009°44'43 8.1
2014-Oct-25 00:11N 35°49' W 009°40'6 8.1
2014-Oct-24 23:25N 35°43' W 009°40'8 8.0
2014-Oct-24 22:26N 35°35' W 009°39'7 8.1
2014-Oct-24 21:32N 35°28' W 009°39'8 7.9
2014-Oct-24 20:31N 35°20' W 009°39'9 8.0
2014-Oct-24 19:26N 35°11' W 009°38'8 8.1
2014-Oct-24 18:25N 35°03' W 009°37'26 8.0
2014-Oct-24 15:12N 34°37' W 009°34'5 7.9
2014-Oct-24 14:33N 34°32' W 009°34'112 3.3
2014-Oct-23 04:14N 32°41' W 009°18'180 9.1
2014-Oct-22 08:33N 35°19' W 007°34'8 8.1
2014-Oct-22 07:33N 35°26' W 007°29'9 8.4
2014-Oct-22 06:31N 35°33' W 007°24'  
2014-Oct-18 00:06N 36°49' W 007°23'26 7.3
2014-Oct-17 20:33N 36°51' W 007°55'7 6.7
2014-Oct-17 19:32N 36°51' W 008°04'19 7.9
2014-Oct-17 17:04N 36°50' W 008°28'4 7.4
2014-Oct-17 16:33N 36°49' W 008°32'8 7.7
2014-Oct-17 15:33N 36°44' W 008°40'7 7.5
2014-Oct-17 14:33N 36°40' W 008°48'  

Dump ship's entire track history